Location: Clanezzo
(45.7500°N, 9.6000°E)
Time: 04:15:38
(UTC+00:00)

AO-73 - Pass Details

Date: 27 June 2022
Orbit: 579 x 657 km, 97.6° (Epoch: 09 August)

Event Time Altitude Azimuth Distance (km) Brightness Sun altitude
Rises 02:49:56 0° 21° (NNE) 2,939 ? -6.7°
Reaches altitude 10° 02:52:18 10° 31° (NNE) 2,037 ? -6.4°
Maximum altitude 02:56:21 34° 96° (E) 1,076 ? -5.9°
Drops below altitude 10° 03:00:26 10° 161° (SSE) 2,054 ? -5.4°
Sets 03:02:50 0° 171° (S) 2,966 ? -5.1°
